Regional Weather Roundup
Issued by NWS

Home | Current Version | Previous Version | Text Only | Print | Product List | Glossary On
Versions: 1 2 3 4 5 6 7 8 9 10 11 12 13 14 15 16 17 18 19 20 21 22 23 24 25 26 27 28 29 30 31 32 33 34 35 36 37 38 39 40 41 42 43 44 45 46 47 48 49 50
000
ASUS46 KSEW 212210
RWRWA

WASHINGTON REGIONAL WEATHER ROUNDUP
NATIONAL WEATHER SERVICE SEATTLE WA
300 PM PDT TUE MAY 21 2019

NOTE:"FAIR" INDICATES FEW OR NO CLOUDS BELOW 12,000 FEET WITH NO
SIGNIFICANT WEATHER AND/OR OBSTRUCTIONS TO VISIBILITY.

WAZ507-509-555>559-212300-
SEATTLE, TACOMA, EVERETT, AND VICINITY

CITY           SKY/WX    TMP DP  RH WIND       PRES   REMARKS
EVERETT        CLOUDY    55  50  83 N7        29.79S
BOEING FIELD   CLOUDY    60  47  61 VRB6      29.78R
RENTON         CLOUDY    59  50  72 N13       29.78R
SEATAC AIRPORT PTSUNNY   59  47  64 N10       29.78R
JBLM-MCCHORD   PTSUNNY   63  54  72 N10G17    29.78R
PUYALLUP       CLOUDY    61  50  67 CALM      29.78R
BREMERTON      CLOUDY    60  49  66 VRB6      29.78R
JBLM-FT LEWIS  PTSUNNY   62  54  74 N9        29.77R
TACOMA NARROWS PTSUNNY   60  47  61 N15       29.78R
$$

WAZ001-503-506-510-514-515-212300-
NORTH INTERIOR

CITY           SKY/WX    TMP DP  RH WIND       PRES   REMARKS
BELLINGHAM     CLOUDY    63  51  65 VRB6      29.76S
FRIDAY HARBOR  SUNNY     62  50  64 SW9       29.78S
EASTSOUND      MOSUNNY   59  52  77 VRB5      29.77S
PORT ANGELES   SUNNY     60  49  66 NW7       29.79S
EDIZ HOOK      FAIR      55  50  83 NW10G16   29.79S
PORT TOWNSEND  FAIR      61  50  67 W7G15     29.77S
NAS WHIDBEY    CLOUDY    59  50  72 W7        29.82S
ARLINGTON      CLOUDY    56  52  86 NW6       29.79R
BURLINGTON     MOSUNNY   64  54  68 NW8G14    29.78S
$$

WAZ020-022-039-040-504-511-512-212300-
SOUTHWEST INTERIOR

CITY           SKY/WX    TMP DP  RH WIND       PRES   REMARKS
SHELTON        CLOUDY    66  47  50 N3        29.74F
OLYMPIA        CLOUDY    63  47  55 E7        29.77S
CHEHALIS       PTSUNNY   66  50  55 N9        29.77R
KELSO          CLOUDY    65  48  54 N8G16     29.75S
VANCOUVER      CLOUDY    63  41  44 NW7       29.73R
SCAPPOOSE, OR  CLOUDY    66  45  46 N9        29.73R
PORTLAND, OR   PTSUNNY   64  42  44 NW8       29.73R
$$

WAZ021-516-517-212300-
WASHINGTON COAST

CITY           SKY/WX    TMP DP  RH WIND       PRES   REMARKS
FORKS          MOSUNNY   64  47  53 NW12      29.79R
HOQUIAM        PTSUNNY   63  51  65 W16       29.78R
ASTORIA, OR    CLOUDY    61  49  64 NW14      29.77R
$$

WAZ019-023-024-040-567>569-212300-
CASCADE MOUNTAINS AND COLUMBIA GORGE

CITY           SKY/WX    TMP DP  RH WIND       PRES   REMARKS
STAMPEDE PASS  CLOUDY    50  44  80 VRB5      29.74S
TROUTDALE, OR  PTSUNNY   64  44  48 VRB7      29.72R
HOOD RIVER, OR CLOUDY    63  41  45 CALM      29.71S
THE DALLES, OR CLOUDY    64  44  48 VRB5      29.68S
$$

WAZ026-027-041>044-520-521-212300-
EAST SLOPES

CITY           SKY/WX    TMP DP  RH WIND       PRES   REMARKS
OMAK           CLOUDY    66  37  34 N15       29.71R
WENATCHEE      CLOUDY    67  33  28 NE8       29.67R
ELLENSBURG     CLOUDY    67  35  30 E7        29.67R
YAKIMA         LGT RAIN  64  43  46 S8        29.66S
SUNNYSIDE ARPT CLOUDY    62  49  62 E6        29.68R
YAKIMA TC      MOCLDY    65  33  30 N9        29.65R
$$

WAZ028-034-035-212300-
COLUMBIA BASIN

CITY           SKY/WX    TMP DP  RH WIND       PRES   REMARKS
EPHRATA        CLOUDY    69  35  28 NE9       29.66S
MOSES LAKE     CLOUDY    67  46  47 S12       29.67R
PASCO          LGT RAIN  60  48  64 S6        29.70F
RICHLAND ARPT  DRIZZLE   61  49  65 SE7       29.70S
HERMISTON, OR  LGT RAIN  55  48  77 CALM      29.70S
$$

WAZ036>038-212300-
NORTHEAST WASHINGTON

CITY           SKY/WX    TMP DP  RH WIND       PRES   REMARKS
SPOKANE GEIGER PTSUNNY   64  37  36 NE9       29.65F
SPOKANE FELTS  CLOUDY    66  39  37 CALM      29.65S
FAIRCHILD AFB  PTSUNNY   63  38  40 N13       29.66S
COEURDALENE,ID PTSUNNY   65  38  36 N16       29.65S
DEER PARK      PTSUNNY   65  36  34 NE10      29.66S
$$

WAZ029>033-212300-
SOUTHEAST WASHINGTON

CITY           SKY/WX    TMP DP  RH WIND       PRES   REMARKS
PULLMAN        CLOUDY    51  44  77 W9        29.69S
LEWISTON, ID   PTSUNNY   59  42  53 NW9       29.68S
WALLA WALLA    CLOUDY    57  43  59 SW6       29.70S
PENDLETON, OR  CLOUDY    54  45  71 NW6       29.69S
$$



USA.gov is the U.S. government's official web portal to all federal, state and local government web resources and services.